Track STARLINK-2631 now! 10-day predictions STARLINK-2631 is classified as:
1 48366U 21038P 22181.60722402 .00002212 00000-0 16735-3 0 9990 2 48366 53.0564 283.4060 0001284 87.2489 272.8646 15.06391557 63970